Regional Weather Roundup
Issued by NWS

Home | Current Version | Previous Version | Text Only | Print | Product List | Glossary Off
Versions: 1 2 3 4 5 6 7 8 9 10 11 12 13 14 15 16 17 18 19 20 21 22 23 24 25 26 27 28 29 30 31 32 33 34 35 36 37 38 39 40 41 42 43 44 45 46 47 48 49 50

000
ASUS43 KMPX 181201
RWRMN
WEATHER ROUNDUP FOR MINNESOTA
NATIONAL WEATHER SERVICE TWIN CITIES/CHANHASSEN MN
600 AM CST MON DEC 18 2017


NOTE: "FAIR" INDICATES FEW OR NO CLOUDS BELOW 12,000 FEET WITH NO
SIGNIFICANT WEATHER AND/OR OBSTRUCTIONS TO VISIBILITY. N/A MEANS
CURRENT SKY AND/OR WEATHER CONDITIONS ARE NOT AVAILABLE.

MNZ060>063-068>070-181300-
   Twin Cities Metro

CITY           SKY/WX    TMP DP  RH WIND       PRES   REMARKS
TWIN CITIES    MOCLDY    26  25  96 S6        29.83F FOG     WCI  19
6HR MIN TEMP:  25; 6HR MAX TEMP:  27;

ST PAUL        CLOUDY    26  25  96 SE7       29.84F FOG     WCI  18
CRYSTAL        PTCLDY    26  22  84 S7        29.80F FOG     WCI  18
BLAINE         CLOUDY    27  27 100 S7        29.81S FOG     WCI  19
LAKEVILLE        N/A     25  25 100 S5        29.82F FOG     WCI  19
EDEN PRAIRIE   CLOUDY    26  23  88 S7        29.81F FOG     WCI  18
6HR MIN TEMP:  26; 6HR MAX TEMP:  27;

SOUTH ST PAUL  CLOUDY    27  26  99 S3        29.83S FOG
LAKE ELMO      FAIR      27  27 100 S6        29.83F FOG     WCI  20
$$
MNZ001>005-007-008-013>017-022>024-027-028-181300-
   Northwest Minnesota

CITY           SKY/WX    TMP DP  RH WIND       PRES   REMARKS
BEMIDJI        CLOUDY    28  27  94 S6        29.62S WCI  22
HALLOCK        CLOUDY    27  25  93 S13       29.53F WCI  16
ROSEAU         CLOUDY    30  25  80 SW14      29.53S WCI  20
WARROAD        CLOUDY    28  27  93 SW14      29.53F WCI  17
CROOKSTON      CLOUDY    27  27 100 SW14      29.60F WCI  15
FOSSTON        CLOUDY    27  25  93 SW12      29.63S WCI  16
DETROIT LAKES  CLOUDY    32  30  93 SW10      29.65F WCI  24
MOORHEAD       CLOUDY    28  27  93 CALM      29.66F
PARK RAPIDS    CLOUDY    24  22  91 S8        29.64F FOG     WCI  15
MAHNOMEN       FAIR      26  25  95 S12       29.63S WCI  16
$$
MNZ006-009>011-018-025>026-181300-
   North Central Minnesota

CITY           SKY/WX    TMP DP  RH WIND       PRES   REMARKS
BAUDETTE       CLOUDY    29  27  92 SW12      29.55F WCI  19
FLAG ISLAND    CLOUDY    27  27 100 S9G16     29.50F WCI  17
INTL FALLS     CLOUDY    27  24  89 S10G20    29.57F FOG     WCI  17
6HR MIN TEMP:  25; 6HR MAX TEMP:  27;

WASKISH        CLOUDY    28  28 100 S7        29.59F WCI  21
BIG FORK       CLOUDY    28  27  93 S6        29.62F FOG     WCI  22
LONGVILLE      CLOUDY    27  25  93 S5        29.66F FOG     WCI  21
GRAND RAPIDS   CLOUDY    25  22  88 S13       29.67F WCI  14
CRANE LAKE     CLOUDY    27  27 100 S5        29.63F WCI  21
ORR            CLOUDY    27  25  93 S9        29.60F WCI  17
COOK           CLOUDY    27  25  93 S6        29.63F WCI  20
WALKER         FAIR      28  26  93 S8        29.63F WCI  19
$$
MNZ012-019>021-037-181300-
   Northeast Minnesota

CITY           SKY/WX    TMP DP  RH WIND       PRES   REMARKS
DULUTH         CLOUDY    22  21  96 SW10      29.71F FOG     WCI  11
6HR MIN TEMP:  22; 6HR MAX TEMP:  24;

ELY            CLOUDY    27  27 100 S9        29.64F WCI  17
HIBBING        CLOUDY    24  21  88 S6        29.66F WCI  17
EVELETH        CLOUDY    24  20  85 S7        29.67F WCI  16
DULUTH HARBOR  CLOUDY    27  23  86 SW6       29.77F FOG     WCI  20
TWO HARBORS    CLOUDY    27  21  80 SW6       29.71F WCI  20
SILVER BAY     CLOUDY    27  27 100 S7        29.70F FOG     WCI  19
GRAND MARAIS     N/A     27  22  81 W5        29.74F WCI  22
G MARAIS ARPRT CLOUDY    16  12  86 CALM      29.67F FOG
$$
MNZ029>031-032-039>041-046>048-054>057-064-181300-
   West Central Minnesota

CITY           SKY/WX    TMP DP  RH WIND       PRES   REMARKS
FERGUS FALLS   CLEAR     27  27 100 S8        29.72S WCI  18
WHEATON        PTCLDY    28  27  93 S7        29.72F WCI  21
MORRIS         CLOUDY    28  27  93 S7        29.72S WCI  21
ALEXANDRIA     CLOUDY    30  26  85 S12       29.71F WCI  20
ELBOW LAKE     FAIR      26  25  96 S8        29.71S WCI  18
WADENA         CLOUDY    28  27  93 SW9       29.67F WCI  20
GLENWOOD       PTCLDY    27  27 100 SW7       29.73S WCI  19
APPLETON       CLOUDY    32  27  80 S6        29.74F WCI  26
BENSON         CLOUDY    28  25  86 SW7       29.75S WCI  21
ORTONVILLE     CLOUDY    30  27  86 CALM      29.73S
MADISON        CLOUDY    34  28  80 SW9       29.74F WCI  26
WILLMAR        MOCLDY    30  28  93 S3        29.76F
$$
MNZ033>034-036-042>043-049>051-058-059-181300-
   Central Minnesota

CITY           SKY/WX    TMP DP  RH WIND       PRES   REMARKS
ST CLOUD       CLOUDY    25  23  92 S6        29.76F WCI  18
6HR MIN TEMP:  24; 6HR MAX TEMP:  26;

SAUK CENTRE    FAIR      28  25  91 S8        29.73F WCI  19
PAYNESVILLE    PTCLDY    28  27  95 S8        29.75F WCI  20
AITKIN         CLOUDY    23  21  93 S5        29.69F WCI  17
PINE RIVER     CLOUDY    21  19  93 SE6       29.71F FOG     WCI  14
BRAINERD       CLOUDY    28  24  85 S8        29.71F FOG     WCI  20
STAPLES        CLOUDY    25  25 100 S7        29.68F FOG     WCI  17
LONG PRAIRIE   FAIR      28  27  93 S7        29.73S WCI  21
LITTLE FALLS   CLOUDY    27  21  80 SE6       29.73F WCI  20
LITCHFIELD     CLOUDY    27  27 100 CALM      29.77F FOG
BUFFALO        PTCLDY    26  24  91 S5        29.80F FOG     WCI  21
MAPLE LAKE     CLOUDY    27  26  96 S5        29.78F FOG     WCI  21
HUTCHINSON     CLOUDY    27  25  95 S6        29.79F FOG     WCI  20
$$
MNZ037-044-045-052-053-181300-
   East Central Minnesota

CITY           SKY/WX    TMP DP  RH WIND       PRES   REMARKS
PRINCETON      CLOUDY    27  25  93 SE6       29.77F FOG     WCI  20
MORA           CLOUDY    25  23  93 S3        29.78F FOG
CAMBRIDGE      CLOUDY    27  25  93 S8        29.79F FOG     WCI  18
RUSH CITY      CLOUDY    25  23  93 S8        29.79F FOG     WCI  16
MOOSE LAKE     CLOUDY    25  21  86 S8        29.73F FOG     WCI  16
HINCKLEY       CLOUDY    27  27 100 S7        29.77F FOG     WCI  19
CLOQUET        CLOUDY    23  21  93 S8        29.72F FOG     WCI  14
MCGREGOR       CLOUDY    27  23  86 S7        29.72S WCI  19
$$
MNZ071>073-080-081-089-090-097-098-181300-
   Southwest Minnesota

CITY           SKY/WX    TMP DP  RH WIND       PRES   REMARKS
MONTEVIDEO     PTCLDY    30  27  86 SW7       29.75S WCI  23
GRANITE FALLS  CLOUDY    29  27  91 S10       29.78F WCI  20
CANBY          CLOUDY    34  29  82 SW14      29.75F WCI  24
MARSHALL       CLOUDY    31  28  89 SW15      29.77F WCI  20
REDWOOD FALLS  CLOUDY    30  27  88 S13       29.78F WCI  20
OLIVIA         CLOUDY    30  28  93 S9        29.76F WCI  22
PIPESTONE      CLOUDY    27  23  86 SW9       29.78S WCI  17
WINDOM           N/A     27  16  63 S8        29.80F WCI  18
WORTHINGTON    CLOUDY    26  25  96 SW9       29.80F WCI  17
JACKSON        CLOUDY    23  23 100 S8        29.82F FOG     WCI  14
SLAYTON        PTCLDY    28  25  89 SW15      29.78F WCI  16
$$
MNZ065>067-074>077-082>085-091>093-181300-
   South Central Minnesota

CITY           SKY/WX    TMP DP  RH WIND       PRES   REMARKS
MANKATO        CLEAR     24  23  96 S7        29.83F FOG     WCI  16
NEW ULM        PTCLDY    27  25  93 S8        29.81F WCI  18
ST JAMES       CLEAR     27  25  93 S9        29.83F WCI  17
FAIRMONT       CLEAR     24  23  96 S8        29.85F WCI  15
GLENCOE        CLOUDY    28  28 100 S5        29.80S FOG     WCI  22
FARIBAULT      CLEAR     27  25  93 S5        29.84S FOG     WCI  21
OWATONNA       CLEAR     27  25  93 S8        29.83F FOG     WCI  18
WASECA         CLEAR     25  23  93 S6        29.85F FOG     WCI  18
$$
MNZ078>079-086>088-094>096-181300-
   Southeast Minnesota

CITY           SKY/WX    TMP DP  RH WIND       PRES   REMARKS
ROCHESTER      CLOUDY    27  27 100 SW12      29.85F FOG     WCI  17
6HR MIN TEMP:  27; 6HR MAX TEMP:  29;

RED WING       CLOUDY    28  25  86 S3        29.84F FOG
STANTON        PTCLDY    28  26  89 S6        29.82F FOG     WCI  22
DODGE CENTER   CLOUDY    27  25  93 SW8       29.84F FOG     WCI  18
WINONA         CLOUDY    30  28  93 SW5       29.89S WCI  25
PRESTON        FOG       26  25  96 SW5       29.87F VSB 3/4 WCI  21
$$
ABBREVIATIONS USED IN REMARKS
   TC - TEMPERATURES IN CELSIUS
  WCI - WIND CHILL INDEX
   HX - HEAT INDEX
  VSB - VISIBILITY
$$




USA.gov is the U.S. government's official web portal to all federal, state and local government web resources and services.